FENGYUN 1C DEB, 30315

Orbit data source: Space-Track

FENGYUN 1C DEB, 30315 is space debris in SSO originally from a launch on Mon, 10 May 1999 UTC launched from the Taiyaun Space Center, China (TSC). Fengyun 1C debris stems from the Chinese weather satellite Fengyun-1C, which was intentionally destroyed by a Chinese anti-satellite missile in 2007. This event dramatically increased the amount of space debris, with thousands of trackable fragments posing hazards to satellites and human spaceflight. The Fengyun 1C debris cloud has become a focal point in discussions about space sustainability and the need for international regulations to prevent the creation of new debris.

Loading next visibility...
Identifier
30315, 1999-025AAC
Orbit
SSO
Country
Flag of CNCN / PRC
Related business
Manufacturer
Unknown
Mission
Spacecraft
Bus & Motor
Unknown
Mass
Unknown
Launch date (UTC)
1999-05-10 (26 years ago)
Launch vehicle
Unknown
Launch site
Taiyaun Space Center, China (TSC)
Object type
Payload
Rocket body
Debris
Shape & HBR
Unknown shape, 0.1 m
Radar Cross Section
Small (<0.1 m²)

Expand to show TLE details & history
Last TLE update: 10 hours ago

TLE from 10 hours ago
0 FENGYUN 1C DEB
1 30315U 99025AAC 25294.98470137  .00000829  00000-0  41527-3 0  9999
2 30315  98.6050 306.0153 0035960 146.4946 278.1349 14.18969140969738
Epoch: 2025-10-21T23:37Z
TLE epoch observation values (Epoch: 2025-10-21T23:37:58.198Z)
Latitude
63.0088°
Longitude
-96.33156°
Altitude
836.06 km
Speed
7.443 km/s
True Right ascension
19h 15m 18s
True Declination
62° 52' 15"
Sunlit
Object was in daylight at epoch
Visualization orbit readout
Latitude
Unknown
Longitude
Unknown
Altitude
Unknown
Speed
Unknown
Apparent Right ascension
Unknown
Apparent Declination
Unknown
Sunlit
N/A
Visualization observer readout
Local Sidereal Time
04:48:51
Azimuth
Unknown
Elevation
Unknown
Doppler factor
Unknown
Orbital elements
Apogee altitude
851.902 km
Perigee altitude
800.09 km
Semi-major axis
7,204.133 km
Eccentricity
0.0036
Inclination
98.605°
RAAN
306.0153°
Arg. of periapsis
146.4946°
True anomaly
277.72672°
Mean anomaly
278.1349°
Eccentric anomaly
277.93084°
Mean motion
3.54953 °/min
Orbital period
101.42 mins
BSTAR
0.00041527
Loading maneuver chart data...
Computing Atmospheric mass density...

Documentation

Showing up to 5 results
|